Вернуться в каталог

STARLINK-34211

АктивенСвязьVLEO
NORAD 64255·PAYLOAD·🇺🇸 United States

Запущен Jun 3, 2025 с Cape Canaveral Space Force Station

Loading…

Ближайшие Пролёты (ближайшие 24 часа)

TLE

СвежийSource: CelesTrak SupGP

Эпоха: Sep 14, 2026, 20:53 UTC

1 64255C 25119Y   26257.87062500 -.00025994  00000+0 -94151-3 0  2570
2 64255  43.0021 319.0421 0001583 267.5271 235.7854 15.27590458    12

Отслеживайте STARLINK-34211 в реальном времени с AllMySat

Download on the App Store